Station Historical Data
Daily Summary for June 26, 2012 Units:  English    Metric   Both
« Previous Day
Next Day »
Daily Weekly Monthly Yearly Custom
  High: Low: Average:
Temperature: 88.8 °F 67.7 °F 78.4 °F
Dew Point: 65.7 °F 45.0 °F 53.8 °F
Humidity: 67% 23% 46%
Wind Speed: 14.0mph 0.0mph 5mph
Wind Gust: 20.0mph - -
Wind- - ESE
Pressure: 29.83 in 29.71 in -
Precipitation: 0.00 in    
Historical Graphs
 
 
Tabular Data for June 26, 2012
Time Temperature Dew Point Pressure Wind Wind Speed Wind Gust Humidity Rainfall Rate (Hourly) Conditions
00:00 79.9 °F 65.7 °F 29.72 in North 3.0 mph 7.0 mph 62% 0.00 in
00:01 79.9 °F 65.7 °F 29.72 in NNW 2.0 mph 7.0 mph 62% 0.00 in
00:06 79.9 °F 65.7 °F 29.72 in NNE 2.0 mph 6.0 mph 62% 0.00 in
00:11 79.8 °F 65.6 °F 29.72 in NE 7.0 mph 7.0 mph 62% 0.00 in
00:16 79.9 °F 65.3 °F 29.72 in NE 5.0 mph 8.0 mph 61% 0.00 in
00:21 80.1 °F 65.4 °F 29.72 in North 4.0 mph 10.0 mph 61% 0.00 in
00:26 80.0 °F 65.4 °F 29.72 in NE 4.0 mph 6.0 mph 61% 0.00 in
00:31 79.9 °F 65.3 °F 29.72 in NE 9.0 mph 9.0 mph 61% 0.00 in
00:36 79.9 °F 65.3 °F 29.72 in NE 6.0 mph 8.0 mph 61% 0.00 in
00:42 79.7 °F 65.1 °F 29.72 in NNE 3.0 mph 9.0 mph 61% 0.00 in
00:47 79.6 °F 65.0 °F 29.72 in NNE 3.0 mph 5.0 mph 61% 0.00 in
00:52 79.5 °F 64.9 °F 29.72 in NE 5.0 mph 7.0 mph 61% 0.00 in
00:57 79.4 °F 64.8 °F 29.72 in NE 5.0 mph 7.0 mph 61% 0.00 in
01:02 79.3 °F 64.7 °F 29.72 in ENE 2.0 mph 8.0 mph 61% 0.00 in
01:07 79.3 °F 64.7 °F 29.72 in North 4.0 mph 11.0 mph 61% 0.00 in
01:12 79.2 °F 64.6 °F 29.72 in NE 5.0 mph 8.0 mph 61% 0.00 in
01:17 79.2 °F 64.6 °F 29.72 in NNE 2.0 mph 10.0 mph 61% 0.00 in
01:22 79.0 °F 64.4 °F 29.72 in NNE 4.0 mph 8.0 mph 61% 0.00 in
01:27 78.9 °F 64.3 °F 29.72 in NE 2.0 mph 5.0 mph 61% 0.00 in
01:32 78.6 °F 64.0 °F 29.72 in NNE 4.0 mph 6.0 mph 61% 0.00 in
01:37 78.5 °F 64.0 °F 29.72 in NE 3.0 mph 5.0 mph 61% 0.00 in
01:42 78.3 °F 64.2 °F 29.72 in NNE 1.0 mph 10.0 mph 62% 0.00 in
01:47 78.1 °F 63.6 °F 29.72 in NE 2.0 mph 5.0 mph 61% 0.00 in
01:52 78.0 °F 63.5 °F 29.72 in NNE 4.0 mph 9.0 mph 61% 0.00 in
01:57 77.8 °F 63.3 °F 29.72 in NE 4.0 mph 8.0 mph 61% 0.00 in
02:02 77.8 °F 63.3 °F 29.72 in NNE 3.0 mph 6.0 mph 61% 0.00 in
02:07 77.6 °F 63.1 °F 29.72 in North 3.0 mph 5.0 mph 61% 0.00 in
02:12 77.5 °F 63.0 °F 29.72 in NE 5.0 mph 8.0 mph 61% 0.00 in
02:17 77.4 °F 62.9 °F 29.72 in NE 6.0 mph 9.0 mph 61% 0.00 in
02:22 77.3 °F 62.8 °F 29.72 in NNE 2.0 mph 8.0 mph 61% 0.00 in
02:27 77.1 °F 62.6 °F 29.72 in NNE 3.0 mph 7.0 mph 61% 0.00 in
02:32 77.0 °F 63.0 °F 29.72 in NNE 7.0 mph 7.0 mph 62% 0.00 in
02:37 76.9 °F 62.4 °F 29.72 in NE 3.0 mph 6.0 mph 61% 0.00 in
02:42 76.7 °F 62.2 °F 29.72 in NNE 6.0 mph 7.0 mph 61% 0.00 in
02:47 76.5 °F 62.1 °F 29.72 in NNE 3.0 mph 7.0 mph 61% 0.00 in
02:52 76.3 °F 62.3 °F 29.72 in NNE 3.0 mph 6.0 mph 62% 0.00 in
02:57 76.2 °F 62.2 °F 29.72 in NNE 2.0 mph 5.0 mph 62% 0.00 in
03:02 76.0 °F 62.0 °F 29.71 in NNE 7.0 mph 8.0 mph 62% 0.00 in
03:07 76.0 °F 61.6 °F 29.72 in NNE 2.0 mph 7.0 mph 61% 0.00 in
03:12 75.8 °F 61.4 °F 29.72 in ENE 1.0 mph 6.0 mph 61% 0.00 in
03:17 75.7 °F 61.3 °F 29.72 in NE 7.0 mph 7.0 mph 61% 0.00 in
03:22 75.4 °F 61.5 °F 29.72 in NE 2.0 mph 6.0 mph 62% 0.00 in
03:27 75.2 °F 61.3 °F 29.72 in NNE 7.0 mph 7.0 mph 62% 0.00 in
03:32 75.1 °F 60.8 °F 29.72 in NNE 3.0 mph 6.0 mph 61% 0.00 in
03:38 75.2 °F 60.8 °F 29.72 in NNE 5.0 mph 10.0 mph 61% 0.00 in
03:43 75.0 °F 60.7 °F 29.72 in NE 4.0 mph 6.0 mph 61% 0.00 in
03:48 74.8 °F 60.9 °F 29.72 in NE 10.0 mph 10.0 mph 62% 0.00 in
03:53 74.7 °F 60.4 °F 29.72 in NE 7.0 mph 9.0 mph 61% 0.00 in
03:58 74.7 °F 60.4 °F 29.72 in North 3.0 mph 11.0 mph 61% 0.00 in
04:03 74.6 °F 60.3 °F 29.72 in North 6.0 mph 9.0 mph 61% 0.00 in
04:08 74.3 °F 60.5 °F 29.73 in NW 1.0 mph 5.0 mph 62% 0.00 in
04:13 74.0 °F 60.2 °F 29.72 in NNE 3.0 mph 6.0 mph 62% 0.00 in
04:18 73.8 °F 60.4 °F 29.72 in NNE 3.0 mph 6.0 mph 63% 0.00 in
04:23 73.5 °F 60.2 °F 29.72 in NNW 5.0 mph 7.0 mph 63% 0.00 in
04:28 73.4 °F 60.0 °F 29.72 in NNW 3.0 mph 7.0 mph 63% 0.00 in
04:33 73.1 °F 59.8 °F 29.72 in North 2.0 mph 8.0 mph 63% 0.00 in
04:38 73.0 °F 59.7 °F 29.73 in North 4.0 mph 7.0 mph 63% 0.00 in
04:43 72.7 °F 59.8 °F 29.73 in NNE 4.0 mph 5.0 mph 64% 0.00 in
04:48 72.5 °F 59.6 °F 29.73 in NE 3.0 mph 6.0 mph 64% 0.00 in
04:53 72.3 °F 59.5 °F 29.73 in North 8.0 mph 8.0 mph 64% 0.00 in
04:58 72.2 °F 59.4 °F 29.73 in NNE 4.0 mph 8.0 mph 64% 0.00 in
05:03 72.0 °F 59.2 °F 29.74 in NNE 2.0 mph 6.0 mph 64% 0.00 in
05:08 71.8 °F 59.0 °F 29.74 in NNW 2.0 mph 8.0 mph 64% 0.00 in
05:13 71.6 °F 58.8 °F 29.74 in NE 3.0 mph 6.0 mph 64% 0.00 in
05:18 71.4 °F 59.0 °F 29.74 in NNE 1.0 mph 4.0 mph 65% 0.00 in
05:23 71.1 °F 58.8 °F 29.74 in North 4.0 mph 8.0 mph 65% 0.00 in
05:28 71.0 °F 58.7 °F 29.74 in NNE 5.0 mph 7.0 mph 65% 0.00 in
05:33 70.9 °F 58.6 °F 29.74 in NE 7.0 mph 10.0 mph 65% 0.00 in
05:38 70.8 °F 58.5 °F 29.75 in NNE 3.0 mph 11.0 mph 65% 0.00 in
05:43 70.6 °F 58.3 °F 29.75 in NNE 3.0 mph 7.0 mph 65% 0.00 in
05:48 70.4 °F 58.1 °F 29.74 in North 4.0 mph 7.0 mph 65% 0.00 in
05:53 70.2 °F 57.9 °F 29.75 in NNE 4.0 mph 8.0 mph 65% 0.00 in
05:58 70.3 °F 58.0 °F 29.74 in North 4.0 mph 9.0 mph 65% 0.00 in
06:03 70.0 °F 57.7 °F 29.75 in NE 1.0 mph 6.0 mph 65% 0.00 in
06:08 69.6 °F 57.3 °F 29.75 in NE 5.0 mph 7.0 mph 65% 0.00 in
06:13 69.6 °F 57.3 °F 29.75 in NE 3.0 mph 7.0 mph 65% 0.00 in
06:18 69.4 °F 57.1 °F 29.75 in NE 3.0 mph 6.0 mph 65% 0.00 in
06:24 69.1 °F 57.3 °F 29.76 in NNE 3.0 mph 6.0 mph 66% 0.00 in
06:29 68.8 °F 57.0 °F 29.76 in North 5.0 mph 5.0 mph 66% 0.00 in
06:34 68.5 °F 57.1 °F 29.76 in NE 1.0 mph 4.0 mph 67% 0.00 in
06:39 68.2 °F 56.8 °F 29.76 in NE 3.0 mph 7.0 mph 67% 0.00 in
06:44 68.1 °F 56.7 °F 29.76 in North 2.0 mph 6.0 mph 67% 0.00 in
06:49 68.0 °F 56.7 °F 29.76 in NE 5.0 mph 7.0 mph 67% 0.00 in
06:54 67.9 °F 56.1 °F 29.77 in NE 3.0 mph 5.0 mph 66% 0.00 in
06:59 67.7 °F 56.0 °F 29.77 in NE 3.0 mph 5.0 mph 66% 0.00 in
07:04 67.8 °F 56.0 °F 29.77 in NE 3.0 mph 5.0 mph 66% 0.00 in
07:09 68.2 °F 56.4 °F 29.77 in NNE 2.0 mph 6.0 mph 66% 0.00 in
07:14 68.4 °F 56.2 °F 29.76 in NNW 4.0 mph 8.0 mph 65% 0.00 in
07:19 68.6 °F 56.0 °F 29.77 in NE 4.0 mph 4.0 mph 64% 0.00 in
07:24 68.7 °F 56.0 °F 29.77 in North 4.0 mph 7.0 mph 64% 0.00 in
07:29 68.9 °F 55.8 °F 29.77 in NE 5.0 mph 5.0 mph 63% 0.00 in
07:34 69.0 °F 55.9 °F 29.77 in NNE 5.0 mph 6.0 mph 63% 0.00 in
07:39 69.1 °F 55.1 °F 29.77 in North 3.0 mph 11.0 mph 61% 0.00 in
07:44 69.3 °F 55.3 °F 29.77 in NNW 2.0 mph 8.0 mph 61% 0.00 in
07:49 69.5 °F 55.0 °F 29.77 in NE 3.0 mph 10.0 mph 60% 0.00 in
07:54 69.7 °F 55.2 °F 29.77 in North 11.0 mph 11.0 mph 60% 0.00 in
07:59 69.8 °F 54.8 °F 29.77 in NNE 4.0 mph 7.0 mph 59% 0.00 in
08:04 70.0 °F 55.0 °F 29.77 in North 7.0 mph 8.0 mph 59% 0.00 in
08:09 70.1 °F 54.7 °F 29.78 in NW 2.0 mph 9.0 mph 58% 0.00 in
08:14 70.2 °F 54.8 °F 29.78 in NNE 14.0 mph 14.0 mph 58% 0.00 in
08:19 70.3 °F 54.4 °F 29.77 in NNE 4.0 mph 13.0 mph 57% 0.00 in
08:24 70.4 °F 54.5 °F 29.77 in NNE 8.0 mph 12.0 mph 57% 0.00 in
08:29 70.5 °F 54.5 °F 29.77 in NNE 8.0 mph 11.0 mph 57% 0.00 in
08:34 70.6 °F 54.6 °F 29.78 in NNE 6.0 mph 12.0 mph 57% 0.00 in
08:39 70.8 °F 53.8 °F 29.78 in NE 11.0 mph 13.0 mph 55% 0.00 in
08:44 70.9 °F 54.0 °F 29.78 in NE 4.0 mph 10.0 mph 55% 0.00 in
08:49 71.2 °F 54.2 °F 29.78 in NNE 8.0 mph 12.0 mph 55% 0.00 in
08:54 71.1 °F 54.1 °F 29.78 in NE 6.0 mph 11.0 mph 55% 0.00 in
08:59 71.4 °F 53.9 °F 29.78 in NE 8.0 mph 17.0 mph 54% 0.00 in
09:04 71.3 °F 53.8 °F 29.79 in North 6.0 mph 13.0 mph 54% 0.00 in
09:09 71.5 °F 54.0 °F 29.79 in North 8.0 mph 12.0 mph 54% 0.00 in
09:14 71.7 °F 54.2 °F 29.79 in NNE 9.0 mph 10.0 mph 54% 0.00 in
09:19 71.8 °F 53.8 °F 29.79 in NE 9.0 mph 12.0 mph 53% 0.00 in
09:24 71.9 °F 54.4 °F 29.79 in NNW 9.0 mph 12.0 mph 54% 0.00 in
09:29 72.1 °F 54.6 °F 29.79 in NE 8.0 mph 12.0 mph 54% 0.00 in
09:34 72.4 °F 54.3 °F 29.79 in NNE 5.0 mph 12.0 mph 53% 0.00 in
09:39 72.7 °F 54.6 °F 29.80 in NNE 8.0 mph 11.0 mph 53% 0.00 in
09:44 73.1 °F 55.0 °F 29.80 in NE 7.0 mph 12.0 mph 53% 0.00 in
09:49 73.2 °F 54.5 °F 29.80 in ENE 11.0 mph 11.0 mph 52% 0.00 in
09:54 73.3 °F 54.6 °F 29.80 in NE 7.0 mph 12.0 mph 52% 0.00 in
09:59 73.5 °F 55.3 °F 29.80 in NE 7.0 mph 10.0 mph 53% 0.00 in
10:04 73.6 °F 54.9 °F 29.80 in ENE 8.0 mph 9.0 mph 52% 0.00 in
10:09 74.1 °F 55.9 °F 29.80 in North 4.0 mph 8.0 mph 53% 0.00 in
10:15 74.6 °F 55.8 °F 29.80 in NE 7.0 mph 11.0 mph 52% 0.00 in
10:20 74.7 °F 55.9 °F 29.80 in NNE 8.0 mph 9.0 mph 52% 0.00 in
10:25 74.6 °F 56.4 °F 29.80 in NE 9.0 mph 11.0 mph 53% 0.00 in
10:29 74.9 °F 56.1 °F 29.79 in NE 7.0 mph 9.0 mph 52% 0.00 in
10:34 75.1 °F 56.3 °F 29.80 in NNE 10.0 mph 10.0 mph 52% 0.00 in
10:40 75.3 °F 57.5 °F 29.79 in NE 6.0 mph 11.0 mph 54% 0.00 in
10:45 75.3 °F 55.9 °F 29.79 in ENE 4.0 mph 11.0 mph 51% 0.00 in
10:50 75.9 °F 57.6 °F 29.79 in North 6.0 mph 6.0 mph 53% 0.00 in
10:55 76.2 °F 57.8 °F 29.79 in NNE 4.0 mph 9.0 mph 53% 0.00 in
11:00 77.0 °F 57.5 °F 29.79 in NE 8.0 mph 8.0 mph 51% 0.00 in
11:05 76.9 °F 56.9 °F 29.80 in NNE 2.0 mph 8.0 mph 50% 0.00 in
11:10 77.1 °F 57.0 °F 29.80 in NNE 3.0 mph 9.0 mph 50% 0.00 in
11:15 77.5 °F 58.5 °F 29.80 in NNE 4.0 mph 8.0 mph 52% 0.00 in
11:20 78.0 °F 59.5 °F 29.80 in NE 6.0 mph 7.0 mph 53% 0.00 in
11:25 78.1 °F 58.5 °F 29.80 in ENE 6.0 mph 11.0 mph 51% 0.00 in
11:30 78.1 °F 58.0 °F 29.80 in NNE 8.0 mph 13.0 mph 50% 0.00 in
11:35 78.2 °F 58.6 °F 29.80 in NNE 5.0 mph 10.0 mph 51% 0.00 in
11:40 78.8 °F 59.7 °F 29.80 in WNW 3.0 mph 10.0 mph 52% 0.00 in
11:45 79.0 °F 58.8 °F 29.80 in NNE 6.0 mph 12.0 mph 50% 0.00 in
11:50 79.3 °F 59.1 °F 29.80 in NE 11.0 mph 11.0 mph 50% 0.00 in
11:55 79.2 °F 58.4 °F 29.80 in NNW 5.0 mph 12.0 mph 49% 0.00 in
12:00 79.8 °F 59.5 °F 29.80 in North 3.0 mph 10.0 mph 50% 0.00 in
12:05 80.1 °F 59.2 °F 29.80 in NE 3.0 mph 7.0 mph 49% 0.00 in
12:10 80.3 °F 58.2 °F 29.79 in NNE 5.0 mph 13.0 mph 47% 0.00 in
12:15 80.5 °F 59.6 °F 29.80 in North 6.0 mph 11.0 mph 49% 0.00 in
12:20 81.0 °F 57.7 °F 29.79 in NNE 9.0 mph 11.0 mph 45% 0.00 in
12:25 80.8 °F 57.5 °F 29.79 in NE 7.0 mph 10.0 mph 45% 0.00 in
12:30 81.5 °F 58.8 °F 29.79 in NE 4.0 mph 10.0 mph 46% 0.00 in
12:35 81.8 °F 56.5 °F 29.79 in NE 7.0 mph 14.0 mph 42% 0.00 in
12:40 81.8 °F 57.1 °F 29.79 in NNE 5.0 mph 8.0 mph 43% 0.00 in
12:45 82.2 °F 56.8 °F 29.79 in NNW 7.0 mph 12.0 mph 42% 0.00 in
12:50 82.4 °F 55.0 °F 29.79 in NNE 4.0 mph 11.0 mph 39% 0.00 in
12:55 82.6 °F 54.5 °F 29.79 in NE 10.0 mph 10.0 mph 38% 0.00 in
13:00 82.7 °F 53.1 °F 29.79 in NNE 8.0 mph 14.0 mph 36% 0.00 in
13:05 83.4 °F 55.2 °F 29.78 in NNE 7.0 mph 9.0 mph 38% 0.00 in
13:10 84.0 °F 50.2 °F 29.78 in NNE 4.0 mph 12.0 mph 31% 0.00 in
13:15 83.9 °F 51.8 °F 29.78 in ENE 7.0 mph 11.0 mph 33% 0.00 in
13:20 84.1 °F 52.7 °F 29.78 in NNE 6.0 mph 13.0 mph 34% 0.00 in
13:25 84.5 °F 50.6 °F 29.78 in NE 11.0 mph 11.0 mph 31% 0.00 in
13:30 84.9 °F 49.1 °F 29.78 in North 8.0 mph 15.0 mph 29% 0.00 in
13:35 85.2 °F 52.0 °F 29.78 in NE 10.0 mph 13.0 mph 32% 0.00 in
13:40 85.3 °F 52.1 °F 29.78 in North 8.0 mph 11.0 mph 32% 0.00 in
13:45 86.1 °F 48.2 °F 29.78 in NNE 8.0 mph 9.0 mph 27% 0.00 in
13:50 85.8 °F 47.0 °F 29.78 in NE 9.0 mph 14.0 mph 26% 0.00 in
13:55 85.4 °F 46.7 °F 29.78 in ENE 5.0 mph 13.0 mph 26% 0.00 in
14:00 85.5 °F 51.4 °F 29.78 in NW 4.0 mph 9.0 mph 31% 0.00 in
14:05 85.9 °F 50.9 °F 29.77 in North 8.0 mph 12.0 mph 30% 0.00 in
14:10 86.4 °F 50.4 °F 29.77 in North 10.0 mph 10.0 mph 29% 0.00 in
14:15 86.2 °F 50.2 °F 29.77 in NE 10.0 mph 20.0 mph 29% 0.00 in
14:20 86.2 °F 48.3 °F 29.78 in North 6.0 mph 13.0 mph 27% 0.00 in
14:25 86.5 °F 51.4 °F 29.77 in NNE 9.0 mph 14.0 mph 30% 0.00 in
14:30 86.5 °F 48.6 °F 29.77 in NNE 11.0 mph 14.0 mph 27% 0.00 in
14:35 86.4 °F 47.5 °F 29.77 in North 9.0 mph 15.0 mph 26% 0.00 in
14:40 86.4 °F 48.5 °F 29.77 in NNW 4.0 mph 13.0 mph 27% 0.00 in
14:45 86.8 °F 50.8 °F 29.77 in North 6.0 mph 10.0 mph 29% 0.00 in
14:51 86.9 °F 48.9 °F 29.77 in NE 13.0 mph 14.0 mph 27% 0.00 in
14:56 86.6 °F 46.6 °F 29.77 in NE 11.0 mph 11.0 mph 25% 0.00 in
15:01 86.7 °F 47.8 °F 29.77 in NE 4.0 mph 10.0 mph 26% 0.00 in
15:06 87.1 °F 49.1 °F 29.76 in NE 5.0 mph 12.0 mph 27% 0.00 in
15:11 87.1 °F 47.0 °F 29.76 in NE 11.0 mph 15.0 mph 25% 0.00 in
15:16 87.3 °F 47.2 °F 29.76 in NE 11.0 mph 14.0 mph 25% 0.00 in
15:21 87.1 °F 47.0 °F 29.76 in NNE 7.0 mph 13.0 mph 25% 0.00 in
15:26 87.2 °F 47.1 °F 29.76 in North 6.0 mph 12.0 mph 25% 0.00 in
15:31 87.5 °F 45.2 °F 29.76 in NE 7.0 mph 13.0 mph 23% 0.00 in
15:36 87.0 °F 47.0 °F 29.76 in NE 9.0 mph 9.0 mph 25% 0.00 in
15:41 87.4 °F 49.3 °F 29.76 in NE 6.0 mph 10.0 mph 27% 0.00 in
15:46 87.8 °F 48.7 °F 29.76 in NE 6.0 mph 11.0 mph 26% 0.00 in
15:51 88.1 °F 47.9 °F 29.76 in NNE 5.0 mph 13.0 mph 25% 0.00 in
15:56 88.0 °F 46.7 °F 29.76 in NNE 7.0 mph 9.0 mph 24% 0.00 in
16:01 88.4 °F 49.2 °F 29.76 in NE 6.0 mph 9.0 mph 26% 0.00 in
16:06 88.2 °F 48.0 °F 29.76 in ENE 6.0 mph 12.0 mph 25% 0.00 in
16:11 88.2 °F 49.0 °F 29.76 in NE 4.0 mph 13.0 mph 26% 0.00 in
16:16 88.7 °F 48.4 °F 29.76 in NW 5.0 mph 11.0 mph 25% 0.00 in
16:21 88.6 °F 47.2 °F 29.76 in NNW 7.0 mph 12.0 mph 24% 0.00 in
16:26 88.8 °F 47.4 °F 29.76 in NE 10.0 mph 10.0 mph 24% 0.00 in
16:31 88.4 °F 48.1 °F 29.76 in NNW 12.0 mph 12.0 mph 25% 0.00 in
16:37 88.3 °F 48.1 °F 29.76 in NNE 6.0 mph 11.0 mph 25% 0.00 in
16:42 88.4 °F 48.1 °F 29.76 in NE 5.0 mph 10.0 mph 25% 0.00 in
16:47 88.5 °F 48.2 °F 29.76 in NW 7.0 mph 13.0 mph 25% 0.00 in
16:52 88.8 °F 47.4 °F 29.76 in NNE 13.0 mph 16.0 mph 24% 0.00 in
16:57 88.6 °F 48.3 °F 29.76 in North 12.0 mph 14.0 mph 25% 0.00 in
17:02 88.5 °F 48.2 °F 29.76 in NW 7.0 mph 12.0 mph 25% 0.00 in
17:07 88.7 °F 49.5 °F 29.76 in NE 4.0 mph 15.0 mph 26% 0.00 in
17:12 88.7 °F 48.4 °F 29.77 in North 14.0 mph 14.0 mph 25% 0.00 in
17:17 88.4 °F 48.1 °F 29.77 in North 5.0 mph 14.0 mph 25% 0.00 in
17:22 88.6 °F 48.3 °F 29.77 in NNE 9.0 mph 10.0 mph 25% 0.00 in
17:27 88.7 °F 47.3 °F 29.77 in North 4.0 mph 10.0 mph 24% 0.00 in
17:32 88.5 °F 47.1 °F 29.76 in NNW 13.0 mph 13.0 mph 24% 0.00 in
17:37 88.4 °F 45.9 °F 29.76 in ENE 12.0 mph 17.0 mph 23% 0.00 in
17:42 88.2 °F 45.8 °F 29.76 in NNE 7.0 mph 9.0 mph 23% 0.00 in
17:47 88.1 °F 45.7 °F 29.76 in North 7.0 mph 10.0 mph 23% 0.00 in
17:52 88.1 °F 47.9 °F 29.76 in North 7.0 mph 12.0 mph 25% 0.00 in
17:57 87.9 °F 46.6 °F 29.76 in NNE 11.0 mph 13.0 mph 24% 0.00 in
18:02 87.9 °F 46.6 °F 29.76 in NNE 7.0 mph 14.0 mph 24% 0.00 in
18:07 87.7 °F 45.3 °F 29.76 in North 7.0 mph 16.0 mph 23% 0.00 in
18:12 87.6 °F 45.3 °F 29.76 in NNE 5.0 mph 15.0 mph 23% 0.00 in
18:17 87.6 °F 46.4 °F 29.76 in NNW 5.0 mph 9.0 mph 24% 0.00 in
18:22 87.7 °F 46.5 °F 29.76 in NNW 8.0 mph 10.0 mph 24% 0.00 in
18:27 87.5 °F 46.3 °F 29.76 in NE 11.0 mph 11.0 mph 24% 0.00 in
18:32 87.5 °F 47.4 °F 29.76 in NNW 6.0 mph 10.0 mph 25% 0.00 in
18:37 87.7 °F 45.3 °F 29.76 in NNE 4.0 mph 8.0 mph 23% 0.00 in
18:42 87.5 °F 46.3 °F 29.76 in NNE 6.0 mph 9.0 mph 24% 0.00 in
18:47 87.3 °F 47.2 °F 29.76 in North 5.0 mph 12.0 mph 25% 0.00 in
18:52 87.3 °F 47.2 °F 29.77 in North 5.0 mph 12.0 mph 25% 0.00 in
18:57 86.7 °F 46.7 °F 29.77 in NNE 6.0 mph 12.0 mph 25% 0.00 in
19:02 86.4 °F 46.5 °F 29.76 in North 5.0 mph 11.0 mph 25% 0.00 in
19:07 86.3 °F 47.4 °F 29.77 in NE 8.0 mph 9.0 mph 26% 0.00 in
19:12 86.1 °F 46.2 °F 29.76 in North 7.0 mph 11.0 mph 25% 0.00 in
19:17 85.9 °F 46.0 °F 29.76 in North 4.0 mph 8.0 mph 25% 0.00 in
19:22 85.7 °F 45.9 °F 29.76 in NNE 4.0 mph 8.0 mph 25% 0.00 in
19:28 85.6 °F 46.8 °F 29.76 in NNE 5.0 mph 8.0 mph 26% 0.00 in
19:33 85.6 °F 45.8 °F 29.76 in North 7.0 mph 7.0 mph 25% 0.00 in
19:38 85.4 °F 45.6 °F 29.76 in NE 4.0 mph 5.0 mph 25% 0.00 in
19:43 85.2 °F 46.5 °F 29.76 in North 4.0 mph 8.0 mph 26% 0.00 in
19:48 85.0 °F 45.3 °F 29.76 in North 6.0 mph 8.0 mph 25% 0.00 in
19:53 84.7 °F 45.0 °F 29.77 in North 6.0 mph 11.0 mph 25% 0.00 in
19:58 84.5 °F 45.9 °F 29.76 in NE 4.0 mph 8.0 mph 26% 0.00 in
20:03 84.2 °F 45.6 °F 29.76 in NE 2.0 mph 10.0 mph 26% 0.00 in
20:08 83.9 °F 46.4 °F 29.76 in NNE 2.0 mph 8.0 mph 27% 0.00 in
20:13 83.6 °F 46.1 °F 29.76 in NNE 3.0 mph 8.0 mph 27% 0.00 in
20:18 83.6 °F 46.1 °F 29.76 in North 2.0 mph 3.0 mph 27% 0.00 in
20:23 83.3 °F 45.9 °F 29.77 in NE 3.0 mph 4.0 mph 27% 0.00 in
20:28 83.0 °F 46.6 °F 29.77 in NE 1.0 mph 4.0 mph 28% 0.00 in
20:33 82.8 °F 46.4 °F 29.77 in North 2.0 mph 4.0 mph 28% 0.00 in
20:38 82.3 °F 46.0 °F 29.77 in NNE 1.0 mph 5.0 mph 28% 0.00 in
20:43 81.8 °F 46.5 °F 29.76 in NE 2.0 mph 6.0 mph 29% 0.00 in
20:48 81.3 °F 46.9 °F 29.76 in NE 2.0 mph 5.0 mph 30% 0.00 in
20:53 80.6 °F 46.3 °F 29.77 in Calm   3.0 mph 30% 0.00 in
20:58 79.8 °F 46.5 °F 29.77 in North 1.0 mph 3.0 mph 31% 0.00 in
21:03 78.8 °F 46.5 °F 29.77 in NNE 1.0 mph 3.0 mph 32% 0.00 in
21:08 78.3 °F 46.9 °F 29.77 in NNE 1.0 mph 2.0 mph 33% 0.00 in
21:13 77.7 °F 46.3 °F 29.77 in NNE 2.0 mph 2.0 mph 33% 0.00 in
21:18 77.3 °F 46.0 °F 29.77 in North 2.0 mph 2.0 mph 33% 0.00 in
21:23 76.8 °F 46.3 °F 29.78 in North 1.0 mph 3.0 mph 34% 0.00 in
21:28 76.3 °F 46.7 °F 29.78 in NNE 1.0 mph 2.0 mph 35% 0.00 in
21:33 76.0 °F 47.2 °F 29.78 in NNE 2.0 mph 2.0 mph 36% 0.00 in
21:38 75.8 °F 47.0 °F 29.78 in Calm   2.0 mph 36% 0.00 in
21:43 75.4 °F 47.3 °F 29.79 in Calm   2.0 mph 37% 0.00 in
21:48 74.8 °F 47.5 °F 29.79 in NNE 1.0 mph 2.0 mph 38% 0.00 in
21:53 74.4 °F 47.9 °F 29.79 in North 2.0 mph 3.0 mph 39% 0.00 in
21:58 74.0 °F 48.2 °F 29.79 in North 2.0 mph 3.0 mph 40% 0.00 in
22:03 73.9 °F 48.1 °F 29.79 in North 3.0 mph 4.0 mph 40% 0.00 in
22:08 73.7 °F 47.9 °F 29.79 in NNW 2.0 mph 4.0 mph 40% 0.00 in
22:13 73.5 °F 47.7 °F 29.79 in North 3.0 mph 3.0 mph 40% 0.00 in
22:19 73.4 °F 47.6 °F 29.80 in North 2.0 mph 5.0 mph 40% 0.00 in
22:24 73.3 °F 48.2 °F 29.80 in North 1.0 mph 2.0 mph 41% 0.00 in
22:29 73.0 °F 47.9 °F 29.80 in NNW 1.0 mph 2.0 mph 41% 0.00 in
22:34 72.8 °F 47.8 °F 29.80 in North 1.0 mph 2.0 mph 41% 0.00 in
22:39 72.7 °F 47.7 °F 29.80 in North 2.0 mph 2.0 mph 41% 0.00 in
22:44 72.5 °F 47.5 °F 29.80 in NNW 2.0 mph 2.0 mph 41% 0.00 in
22:49 72.2 °F 47.9 °F 29.81 in NNW 1.0 mph 2.0 mph 42% 0.00 in
22:54 71.7 °F 47.4 °F 29.81 in North 1.0 mph 2.0 mph 42% 0.00 in
22:59 71.6 °F 47.9 °F 29.81 in NNW 1.0 mph 3.0 mph 43% 0.00 in
23:04 71.4 °F 47.8 °F 29.81 in North 1.0 mph 2.0 mph 43% 0.00 in
23:09 71.2 °F 48.2 °F 29.81 in North 2.0 mph 2.0 mph 44% 0.00 in
23:14 71.0 °F 48.0 °F 29.81 in North 1.0 mph 1.0 mph 44% 0.00 in
23:19 70.6 °F 48.2 °F 29.82 in North 1.0 mph 2.0 mph 45% 0.00 in
23:24 70.4 °F 48.1 °F 29.82 in Calm   1.0 mph 45% 0.00 in
23:29 70.3 °F 48.0 °F 29.82 in North 2.0 mph 3.0 mph 45% 0.00 in
23:34 70.2 °F 47.9 °F 29.82 in North 2.0 mph 3.0 mph 45% 0.00 in
23:39 70.0 °F 48.3 °F 29.82 in NNW 2.0 mph 3.0 mph 46% 0.00 in
23:44 69.6 °F 48.5 °F 29.82 in North 2.0 mph 3.0 mph 47% 0.00 in
23:49 69.1 °F 48.6 °F 29.82 in North 2.0 mph 3.0 mph 48% 0.00 in
23:54 68.8 °F 48.3 °F 29.83 in NNW 2.0 mph 3.0 mph 48% 0.00 in
23:59 68.6 °F 48.7 °F 29.83 in North 2.0 mph 3.0 mph 49% 0.00 in
Compliments of Weather Underground